Location: Beaver Brook Station
(42.3793°N, 71.2203°W)
Time: 01:46:34
(UTC+00:00)

SL-4 R/B - Pass Details

Date: 29 October 2020
Orbit: 428 x 665 km, 51.6° (Epoch: 05 December)

Event Time Altitude Azimuth Distance (km) Brightness Sun altitude
Rises 22:15:16 0° 301° (WNW) 2,424 6.1 -6.9°
Reaches altitude 10° 22:17:45 10° 320° (NW) 1,578 4.8 -7.3°
Maximum altitude 22:20:26 20° 9° (N) 1,132 3.4 -7.8°
Drops below altitude 10° 22:23:14 10° 58° (ENE) 1,653 3.9 -8.3°
Enters shadow 22:23:19 10° 59° (ENE) 1,681 3.9 -8.3°
